Weather History for KMCB - October, 2011

Change the Weather History Date:

Thursday, October 13, 2011

  Actual Average Record
Temperature  
Mean Temperature 68 °F -  
Max Temperature 81 °F 80 °F 92 °F (1963)
Min Temperature 57 °F 53 °F 37 °F (1977)
Cooling Degree Days 4    
Growing Degree Days 18 (Base 50)    
Moisture  
Dew Point 59 °F    
Average Humidity 81    
Maximum Humidity 100    
Minimum Humidity 38    
Precipitation  
Precipitation 0.00 in - - ()
Sea Level Pressure  
Sea Level Pressure 29.80 in    
Wind  
Wind Speed 3 mph (WNW)    
Max Wind Speed 16 mph    
Max Gust Speed 18 mph    
Visibility 7 miles    
Events      
Averages and records for this station are not official NWS values.
T = Trace of Precipitation, MM = Missing Value Source: NWS Daily Summary

Daily Weather History Graph

Daily Weather History Graph

Search for Another Location

Airport or City:

Trip Planner

Search our weather history database for the weather conditions in past years. The results will help you decide how hot, cold, wet, or windy it might be!

Date:

Astronomy

Oct. 13, 2011 Rise Set
Actual Time 7:03 AM CDT 6:32 PM CDT
Civil Twilight 6:38 AM CDT 6:57 PM CDT
Nautical Twilight 6:10 AM CDT 7:25 PM CDT
Astronomical Twilight 5:42 AM CDT 7:53 PM CDT
Moon 7:19 PM CDT (10/13) 8:25 AM CDT (10/13)
Length of Visible Light 12h 18m
Length of Day
11h 29m
Full, 98% of the Moon is Illuminated
Oct 13
Full
Oct 19
Last Quarter
Oct 26
New
Nov 2
First Quarter
Nov 10
Full

Hourly Weather History & Observations

Time (CDT) Temp. Heat Index Dew Point Humidity Pressure Visibility Wind Dir Wind Speed Gust Speed Precip Events Conditions
12:08 AM 62.6 °F - 62.6 °F 100% 29.82 in 3.0 mi Calm Calm - N/A   Clear
12:17 AM 64.4 °F - 62.6 °F 94% 29.82 in 2.5 mi Calm Calm - N/A   Clear
12:25 AM 64.4 °F - 62.6 °F 94% 29.82 in 6.0 mi Calm Calm - N/A   Partly Cloudy
1:53 AM 63.0 °F - 62.1 °F 97% 29.79 in 7.0 mi Calm Calm - N/A   Partly Cloudy
2:20 AM 62.6 °F - 60.8 °F 94% 29.80 in 2.0 mi Calm Calm - N/A   Clear
2:28 AM 62.6 °F - 62.6 °F 100% 29.79 in 7.0 mi Calm Calm - N/A   Clear
2:38 AM 60.8 °F - 60.8 °F 100% 29.79 in 1.8 mi Calm Calm - N/A   Clear
2:47 AM 60.8 °F - 60.8 °F 100% 29.80 in 3.0 mi South 3.5 mph - N/A   Clear
2:53 AM 60.1 °F - 59.0 °F 96% 29.78 in 4.0 mi Calm Calm - N/A   Clear
3:16 AM 60.8 °F - 60.8 °F 100% 29.79 in 2.0 mi Calm Calm - N/A   Clear
3:26 AM 60.8 °F - 60.8 °F 100% 29.78 in 4.0 mi Calm Calm - N/A   Clear
3:53 AM 62.1 °F - 60.1 °F 93% 29.77 in 8.0 mi Calm Calm - N/A   Clear
4:53 AM 60.1 °F - 59.0 °F 96% 29.78 in 8.0 mi Calm Calm - N/A   Clear
5:53 AM 62.1 °F - 61.0 °F 96% 29.78 in 4.0 mi WSW 3.5 mph - N/A   Clear
6:53 AM 63.0 °F - 62.1 °F 97% 29.79 in 6.0 mi West 4.6 mph - N/A   Clear
7:53 AM 64.9 °F - 63.0 °F 93% 29.79 in 8.0 mi West 4.6 mph - N/A   Clear
9:53 AM 71.1 °F - 63.0 °F 75% 29.81 in 10.0 mi WNW 9.2 mph 18.4 mph N/A   Clear
10:53 AM 73.9 °F - 60.1 °F 62% 29.81 in 10.0 mi NW 13.8 mph - N/A   Clear
11:53 AM 75.9 °F - 60.1 °F 58% 29.81 in 10.0 mi NNW 13.8 mph 18.4 mph N/A   Clear
12:53 PM 77.0 °F - 57.0 °F 50% 29.80 in 10.0 mi WNW 16.1 mph - N/A   Partly Cloudy
1:53 PM 79.0 °F - 55.9 °F 45% 29.78 in 10.0 mi NNW 11.5 mph - N/A   Clear
2:53 PM 80.1 °F 80.0 °F 54.0 °F 40% 29.77 in 10.0 mi NNW 6.9 mph - N/A   Partly Cloudy
3:53 PM 80.1 °F - 52.0 °F 38% 29.77 in 10.0 mi NNW 11.5 mph - N/A   Partly Cloudy
4:53 PM 79.0 °F - 51.1 °F 38% 29.78 in 10.0 mi WNW 8.1 mph - N/A   Clear
5:53 PM 75.9 °F - 52.0 °F 43% 29.78 in 10.0 mi NW 10.4 mph - N/A   Clear
7:53 PM 64.0 °F - 55.9 °F 75% 29.83 in 10.0 mi Calm Calm - N/A   Clear
8:53 PM 63.0 °F - 55.9 °F 78% 29.85 in 10.0 mi Calm Calm - N/A   Clear
9:53 PM 59.0 °F - 55.0 °F 87% 29.86 in 10.0 mi Calm Calm - N/A   Clear
10:53 PM 57.9 °F - 55.0 °F 90% 29.87 in 10.0 mi Calm Calm - N/A   Clear
11:53 PM 57.0 °F - 54.0 °F 89% 29.87 in 10.0 mi Calm Calm - N/A   Clear